Miscellaneous Local Product
Issued by NWS Hastings, NE

Home | Current Version | Previous Version | Graphics & Text | Print | Product List | Glossary On
Versions: 1 2 3 4 5 6 7 8 9 10 11 12 13 14 15 16 17 18 19 20 21 22 23 24 25 26 27 28 29 30 31 32 33 34 35 36 37 38 39 40 41 42 43 44 45 46 47 48 49 50
000
AXUS43 KGID 311502
MISGRI

GID CWA HOURLY WEATHER ROUNDUP
NATIONAL WEATHER SERVICE HASTINGS NE
1000 AM CDT THU JUL 31 2014

NOTE: "FAIR" INDICATES FEW OR NO CLOUDS BELOW 12,000 FEET WITH NO
SIGNIFICANT WEATHER AND/OR OBSTRUCTIONS TO VISIBILITY.

...SOUTH CENTRAL NEBRASKA...

CITY           SKY/WX    TMP DP  RH WIND       PRES   REMARKS
GRAND ISLAND   MOSUNNY   77  55  46 S12       30.11S
HASTINGS       MOSUNNY   75  53  46 S8        30.12F
KEARNEY        PTSUNNY   73  61  64 S9        30.12F
ORD            MOSUNNY   73  60  63 S7        30.07F
YORK           PTSUNNY   73  59  60 S10       30.12S
AURORA         MOSUNNY   74  58  57 S8        30.11S
LEXINGTON      SUNNY     74  63  67 SW7       30.13S
HOLDREGE       MOSUNNY   73  60  63 CALM      30.13F
HEBRON         MOSUNNY   74  51  45 SW7       30.13F

...NEBRASKA PANHANDLE...

CITY           SKY/WX    TMP DP  RH WIND       PRES   REMARKS
CHADRON        SUNNY     70  52  52 W3        30.19S
ALLIANCE       SUNNY     74  51  44 NE8       30.21S
SCOTTSBLUFF    SUNNY     69  57  65 W7        30.23R
SIDNEY         SUNNY     72  54  53 W7        30.25R

...WESTERN AND NORTH CENTRAL NEBRASKA...

CITY           SKY/WX    TMP DP  RH WIND       PRES   REMARKS
VALENTINE      SUNNY     75  55  49 NW12      30.11S
AINSWORTH      SUNNY     71  55  56 NW9       30.10S
ONEILL         SUNNY     72  60  64 SW3       30.07S
BROKEN BOW     SUNNY     73  62  68 SW9       30.10S
IMPERIAL       MOSUNNY   71  60  68 W5        30.20S
NORTH PLATTE   SUNNY     71  61  70 W7        30.14F
MCCOOK         MOSUNNY   70  61  73 W6        30.17F

...EASTERN NEBRASKA...

CITY           SKY/WX    TMP DP  RH WIND       PRES   REMARKS
NORFOLK        SUNNY     69  60  73 E7        30.09F
SO SIOUX CITY  CLOUDY    67  60  78 CALM      30.10S
TEKAMAH        MOSUNNY   73  59  61 S6        30.10F
ALBION         SUNNY     73  56  56 S12       30.08F
OMAHA EPPLEY   MOSUNNY   73  56  54 S5        30.11S
OFFUTT AFB     SUNNY     73  62  68 CALM      30.11S
MILLARD        SUNNY     75  58  57 CALM      30.11S
LINCOLN        SUNNY     75  56  51 S7        30.12S
NEBRASKA CITY  SUNNY     73  56  55 SW3       30.12S
BEATRICE       SUNNY     73  59  61 SW5       30.12F
FALLS CITY     SUNNY     73  59  61 CALM      30.12S

...NORTHERN KANSAS...

CITY           SKY/WX    TMP DP  RH WIND       PRES   REMARKS
GOODLAND       MOSUNNY   68  57  68 W8        30.24F
HILL CITY      MOSUNNY   75  59  57 VRB5      30.17S
NORTON         MOSUNNY   73  57  56 W5        30.15S
PHILLIPSBURG   SUNNY     72  61  68 CALM      30.15S HAZE
SMITH CENTER   SUNNY     70  59  68 SW6       30.15S
HAYS           MOSUNNY   70  61  73 CALM      30.16F
RUSSELL        MOSUNNY   71  61  70 CALM      30.14F
CONCORDIA      SUNNY     73  60  63 CALM      30.13F
SALINA         SUNNY     72  60  66 NE3       30.15S
TOPEKA         SUNNY     73  58  59 NW5       30.13S



USA.gov is the U.S. government's official web portal to all federal, state and local government web resources and services.